Time,TemperatureF,DewpointF,PressureIn,WindDirection,WindDirectionDegrees,WindSpeedMPH,WindSpeedGustMPH,Humidity,HourlyPrecipIn,Conditions,Clouds,dailyrainin,SoftwareType,DateUTC
2013-09-26 00:01:00,52.4,46.7,30.02,NW,315,0.0,1.1,81,0.00,,,0.09,WUHU216HW,2013-09-26 04:01:00,
2013-09-26 00:02:00,52.4,46.7,30.02,NW,315,0.0,0.7,81,0.00,,,0.09,WUHU216HW,2013-09-26 04:02:00,
2013-09-26 00:07:00,52.4,46.7,30.02,NW,315,0.0,0.4,81,0.00,,,0.09,WUHU216HW,2013-09-26 04:07:00,
2013-09-26 00:12:00,52.2,46.9,30.02,NW,315,0.0,0.0,82,0.00,,,0.09,WUHU216HW,2013-09-26 04:12:00,
2013-09-26 00:17:00,52.2,46.9,30.02,NW,315,0.0,0.0,82,0.00,,,0.09,WUHU216HW,2013-09-26 04:17:00,
2013-09-26 00:22:00,52.2,46.9,30.02,NW,315,0.0,0.0,82,0.00,,,0.09,WUHU216HW,2013-09-26 04:22:00,
2013-09-26 00:27:00,52.2,46.9,30.02,NW,315,0.0,0.0,82,0.00,,,0.09,WUHU216HW,2013-09-26 04:27:00,
2013-09-26 00:32:00,52.0,46.7,30.02,NW,315,1.1,1.1,82,0.00,,,0.09,WUHU216HW,2013-09-26 04:32:00,
2013-09-26 00:37:00,51.8,46.5,30.03,NW,315,0.9,1.1,82,0.00,,,0.09,WUHU216HW,2013-09-26 04:37:00,
2013-09-26 00:42:00,51.7,46.4,30.03,NW,315,0.4,0.9,82,0.00,,,0.09,WUHU216HW,2013-09-26 04:42:00,
2013-09-26 00:47:00,51.5,46.4,30.03,NW,315,0.4,0.9,83,0.00,,,0.09,WUHU216HW,2013-09-26 04:47:00,
2013-09-26 00:52:00,51.5,46.4,30.03,NW,315,0.7,0.7,83,0.00,,,0.09,WUHU216HW,2013-09-26 04:52:00,
2013-09-26 00:57:00,51.5,46.4,30.03,NW,315,0.0,0.7,83,0.00,,,0.09,WUHU216HW,2013-09-26 04:57:00,
2013-09-26 01:02:00,51.5,46.4,30.03,NNW,338,0.4,0.9,83,0.00,,,0.09,WUHU216HW,2013-09-26 05:02:00,
2013-09-26 01:07:00,51.5,46.4,30.03,NNW,338,0.0,0.9,83,0.00,,,0.09,WUHU216HW,2013-09-26 05:07:00,
2013-09-26 01:12:00,51.3,46.6,30.03,NNW,338,0.4,0.7,84,0.00,,,0.09,WUHU216HW,2013-09-26 05:12:00,
2013-09-26 01:17:00,51.3,46.6,30.03,NNW,338,0.0,0.4,84,0.00,,,0.09,WUHU216HW,2013-09-26 05:17:00,
2013-09-26 01:22:00,51.3,46.6,30.03,NNW,338,0.0,0.4,84,0.00,,,0.09,WUHU216HW,2013-09-26 05:22:00,
2013-09-26 01:27:00,51.1,46.5,30.03,NNW,338,0.2,0.2,84,0.00,,,0.09,WUHU216HW,2013-09-26 05:27:00,
2013-09-26 01:32:00,51.1,46.5,30.03,WNW,293,0.9,0.9,84,0.00,,,0.09,WUHU216HW,2013-09-26 05:32:00,
2013-09-26 01:37:00,51.1,46.5,30.03,WNW,293,0.7,0.9,84,0.00,,,0.09,WUHU216HW,2013-09-26 05:37:00,
2013-09-26 01:42:00,51.1,46.7,30.03,WNW,293,0.7,0.9,85,0.00,,,0.09,WUHU216HW,2013-09-26 05:42:00,
2013-09-26 01:47:00,50.9,46.5,30.03,WNW,293,0.4,0.7,85,0.00,,,0.09,WUHU216HW,2013-09-26 05:47:00,
2013-09-26 01:52:00,50.9,46.5,30.03,WNW,293,0.0,0.4,85,0.00,,,0.09,WUHU216HW,2013-09-26 05:52:00,
2013-09-26 01:57:00,50.9,46.8,30.03,WNW,293,0.0,0.0,86,0.00,,,0.09,WUHU216HW,2013-09-26 05:57:00,
2013-09-26 02:02:00,50.8,46.6,30.03,WNW,293,0.0,0.0,86,0.00,,,0.09,WUHU216HW,2013-09-26 06:02:00,
2013-09-26 02:07:00,50.8,46.6,30.03,WNW,293,0.4,0.4,86,0.00,,,0.09,WUHU216HW,2013-09-26 06:07:00,
2013-09-26 02:12:00,50.8,46.6,30.03,WNW,293,0.0,0.4,86,0.00,,,0.09,WUHU216HW,2013-09-26 06:12:00,
2013-09-26 02:17:00,50.8,46.6,30.03,WNW,293,0.4,0.4,86,0.00,,,0.09,WUHU216HW,2013-09-26 06:17:00,
2013-09-26 02:22:00,50.8,46.6,30.04,WNW,293,0.0,0.4,86,0.00,,,0.09,WUHU216HW,2013-09-26 06:22:00,
2013-09-26 02:27:00,50.8,46.6,30.04,WNW,293,0.0,0.4,86,0.00,,,0.09,WUHU216HW,2013-09-26 06:27:00,
2013-09-26 02:32:00,50.6,46.4,30.04,NNW,338,0.7,0.7,86,0.00,,,0.09,WUHU216HW,2013-09-26 06:32:00,
2013-09-26 02:37:00,50.6,46.4,30.04,NNW,338,0.4,0.7,86,0.00,,,0.09,WUHU216HW,2013-09-26 06:37:00,
2013-09-26 02:42:00,50.6,46.8,30.04,NNW,338,0.4,0.7,87,0.00,,,0.09,WUHU216HW,2013-09-26 06:42:00,
2013-09-26 02:47:00,50.4,46.6,30.04,NNW,338,0.0,0.4,87,0.00,,,0.09,WUHU216HW,2013-09-26 06:47:00,
2013-09-26 02:52:00,50.4,46.3,30.04,NNW,338,0.4,0.4,86,0.00,,,0.09,WUHU216HW,2013-09-26 06:52:00,
2013-09-26 02:57:00,50.4,46.3,30.04,NNW,338,0.4,0.4,86,0.00,,,0.09,WUHU216HW,2013-09-26 06:57:00,
2013-09-26 03:02:00,50.2,46.1,30.04,NNW,338,0.7,0.7,86,0.00,,,0.00,WUHU216HW,2013-09-26 07:02:00,
2013-09-26 03:07:00,50.2,46.1,30.04,NNW,338,0.4,0.9,86,0.00,,,0.00,WUHU216HW,2013-09-26 07:07:00,
2013-09-26 03:12:00,50.2,46.1,30.04,NW,315,0.0,0.9,86,0.00,,,0.00,WUHU216HW,2013-09-26 07:12:00,
2013-09-26 03:17:00,50.0,45.9,30.04,NW,315,0.7,0.9,86,0.00,,,0.00,WUHU216HW,2013-09-26 07:17:00,
2013-09-26 03:22:00,50.0,46.3,30.04,NW,315,0.0,0.7,87,0.00,,,0.00,WUHU216HW,2013-09-26 07:22:00,
2013-09-26 03:27:00,50.0,46.3,30.04,NNW,338,0.0,0.7,87,0.00,,,0.00,WUHU216HW,2013-09-26 07:27:00,
2013-09-26 03:32:00,50.0,46.3,30.04,NNW,338,0.7,0.7,87,0.00,,,0.00,WUHU216HW,2013-09-26 07:32:00,
2013-09-26 03:37:00,50.0,46.3,30.04,NW,315,0.0,1.1,87,0.00,,,0.00,WUHU216HW,2013-09-26 07:37:00,
2013-09-26 03:42:00,50.0,46.3,30.04,NW,315,0.4,1.1,87,0.00,,,0.00,WUHU216HW,2013-09-26 07:42:00,
2013-09-26 03:47:00,49.9,46.1,30.04,NW,315,0.4,0.4,87,0.00,,,0.00,WUHU216HW,2013-09-26 07:47:00,
2013-09-26 03:52:00,49.9,46.1,30.04,NW,315,0.0,0.4,87,0.00,,,0.00,WUHU216HW,2013-09-26 07:52:00,
2013-09-26 03:57:00,49.9,46.1,30.04,NNW,338,0.0,1.1,87,0.00,,,0.00,WUHU216HW,2013-09-26 07:57:00,
2013-09-26 04:02:00,49.9,46.1,30.04,NNW,338,0.4,1.1,87,0.00,,,0.00,WUHU216HW,2013-09-26 08:02:00,
2013-09-26 04:07:00,49.9,46.1,30.04,NNW,338,0.0,0.4,87,0.00,,,0.00,WUHU216HW,2013-09-26 08:07:00,
2013-09-26 04:12:00,49.7,45.9,30.04,NNW,338,0.2,0.4,87,0.00,,,0.00,WUHU216HW,2013-09-26 08:12:00,
2013-09-26 04:17:00,49.7,45.9,30.04,NNW,338,0.0,0.2,87,0.00,,,0.00,WUHU216HW,2013-09-26 08:17:00,
2013-09-26 04:22:00,49.7,45.9,30.04,NNW,338,0.0,0.2,87,0.00,,,0.00,WUHU216HW,2013-09-26 08:22:00,
2013-09-26 04:27:00,49.7,45.9,30.04,NNW,338,0.0,0.0,87,0.00,,,0.00,WUHU216HW,2013-09-26 08:27:00,
2013-09-26 04:32:00,49.7,45.9,30.04,NNW,338,0.4,0.4,87,0.00,,,0.00,WUHU216HW,2013-09-26 08:32:00,
2013-09-26 04:37:00,49.7,46.3,30.04,NNW,338,0.2,0.4,88,0.00,,,0.00,WUHU216HW,2013-09-26 08:37:00,
2013-09-26 04:42:00,49.7,46.3,30.04,NNW,338,0.0,0.4,88,0.00,,,0.00,WUHU216HW,2013-09-26 08:42:00,
2013-09-26 04:47:00,49.7,46.3,30.04,NNW,338,0.4,0.4,88,0.00,,,0.00,WUHU216HW,2013-09-26 08:47:00,
2013-09-26 04:52:00,49.7,46.3,30.04,NNW,338,0.4,0.4,88,0.00,,,0.00,WUHU216HW,2013-09-26 08:52:00,
2013-09-26 04:57:00,49.9,46.4,30.03,North,0,0.7,0.7,88,0.00,,,0.00,WUHU216HW,2013-09-26 08:57:00,
2013-09-26 05:02:00,49.9,46.4,30.04,NW,315,0.4,0.9,88,0.00,,,0.00,WUHU216HW,2013-09-26 09:02:00,
2013-09-26 05:07:00,49.9,46.4,30.04,ESE,113,0.0,0.9,88,0.00,,,0.00,WUHU216HW,2013-09-26 09:07:00,
2013-09-26 05:12:00,49.9,46.4,30.04,NE,45,0.0,0.2,88,0.00,,,0.00,WUHU216HW,2013-09-26 09:12:00,
2013-09-26 05:17:00,50.0,46.5,30.04,NNE,23,0.0,0.2,88,0.00,,,0.00,WUHU216HW,2013-09-26 09:17:00,
2013-09-26 05:22:00,50.0,46.5,30.04,North,0,1.1,1.1,88,0.00,,,0.00,WUHU216HW,2013-09-26 09:22:00,
2013-09-26 05:27:00,50.0,46.5,30.04,North,0,0.9,1.1,88,0.00,,,0.00,WUHU216HW,2013-09-26 09:27:00,
2013-09-26 05:32:00,50.2,46.7,30.04,ENE,68,0.2,1.1,88,0.00,,,0.00,WUHU216HW,2013-09-26 09:32:00,
2013-09-26 05:37:00,50.4,46.9,30.04,ENE,68,0.0,0.9,88,0.00,,,0.00,WUHU216HW,2013-09-26 09:37:00,
2013-09-26 05:42:00,50.4,46.9,30.04,ENE,68,0.0,0.2,88,0.00,,,0.00,WUHU216HW,2013-09-26 09:42:00,
2013-09-26 05:47:00,50.4,46.9,30.04,ENE,68,0.0,0.0,88,0.00,,,0.00,WUHU216HW,2013-09-26 09:47:00,
2013-09-26 05:52:00,50.2,46.7,30.04,NE,45,0.0,0.0,88,0.00,,,0.00,WUHU216HW,2013-09-26 09:52:00,
2013-09-26 05:57:00,50.2,46.7,30.04,NE,45,0.0,0.0,88,0.00,,,0.00,WUHU216HW,2013-09-26 09:57:00,
2013-09-26 06:02:00,50.2,46.7,30.04,NE,45,0.0,0.0,88,0.00,,,0.00,WUHU216HW,2013-09-26 10:02:00,
2013-09-26 06:07:00,50.2,46.7,30.03,NE,45,0.0,0.0,88,0.00,,,0.00,WUHU216HW,2013-09-26 10:07:00,
2013-09-26 06:12:00,50.2,46.7,30.03,NE,45,0.0,0.0,88,0.00,,,0.00,WUHU216HW,2013-09-26 10:12:00,
2013-09-26 06:17:00,50.0,46.5,30.04,NE,45,0.0,0.0,88,0.00,,,0.00,WUHU216HW,2013-09-26 10:17:00,
2013-09-26 06:22:00,50.0,46.5,30.04,NE,45,0.0,0.0,88,0.00,,,0.00,WUHU216HW,2013-09-26 10:22:00,
2013-09-26 06:27:00,50.0,46.5,30.04,NE,45,0.0,0.0,88,0.00,,,0.00,WUHU216HW,2013-09-26 10:27:00,
2013-09-26 06:32:00,50.0,46.5,30.04,NE,45,0.2,0.2,88,0.00,,,0.00,WUHU216HW,2013-09-26 10:32:00,
2013-09-26 06:37:00,50.0,46.5,30.04,NE,45,0.0,0.2,88,0.00,,,0.00,WUHU216HW,2013-09-26 10:37:00,
2013-09-26 06:42:00,50.0,46.5,30.04,NNE,23,0.4,0.7,88,0.00,,,0.00,WUHU216HW,2013-09-26 10:42:00,
2013-09-26 06:47:00,50.0,46.5,30.04,NNE,23,0.0,0.7,88,0.00,,,0.00,WUHU216HW,2013-09-26 10:47:00,
2013-09-26 06:52:00,50.0,46.5,30.04,NNE,23,0.2,0.7,88,0.00,,,0.00,WUHU216HW,2013-09-26 10:52:00,
2013-09-26 06:57:00,50.0,46.5,30.04,NNE,23,0.4,0.7,88,0.00,,,0.00,WUHU216HW,2013-09-26 10:57:00,
2013-09-26 07:02:00,49.7,46.3,30.04,North,0,0.0,0.4,88,0.00,,,0.00,WUHU216HW,2013-09-26 11:02:00,
2013-09-26 07:07:00,49.7,46.3,30.04,North,0,0.0,0.2,88,0.00,,,0.00,WUHU216HW,2013-09-26 11:07:00,
2013-09-26 07:12:00,49.7,46.3,30.04,North,0,0.0,0.0,88,0.00,,,0.00,WUHU216HW,2013-09-26 11:12:00,
2013-09-26 07:17:00,49.5,46.1,30.04,North,0,0.7,0.7,88,0.00,,,0.00,WUHU216HW,2013-09-26 11:17:00,
2013-09-26 07:22:00,49.3,45.9,30.04,North,0,0.0,0.7,88,0.00,,,0.00,WUHU216HW,2013-09-26 11:22:00,
2013-09-26 07:27:00,49.3,45.9,30.04,North,0,0.9,0.9,88,0.00,,,0.00,WUHU216HW,2013-09-26 11:27:00,
2013-09-26 07:32:00,49.1,46.1,30.04,North,0,0.0,0.9,89,0.00,,,0.00,WUHU216HW,2013-09-26 11:32:00,
2013-09-26 07:37:00,49.0,45.9,30.05,North,0,0.0,0.0,89,0.00,,,0.00,WUHU216HW,2013-09-26 11:37:00,
2013-09-26 07:42:00,49.0,45.9,30.05,North,0,0.0,0.0,89,0.00,,,0.00,WUHU216HW,2013-09-26 11:42:00,
2013-09-26 07:47:00,49.0,45.9,30.05,North,0,0.4,0.4,89,0.00,,,0.00,WUHU216HW,2013-09-26 11:47:00,
2013-09-26 07:52:00,48.8,45.7,30.05,North,0,0.7,0.7,89,0.00,,,0.00,WUHU216HW,2013-09-26 11:52:00,
2013-09-26 07:57:00,48.8,45.7,30.05,North,0,0.9,0.9,89,0.00,,,0.00,WUHU216HW,2013-09-26 11:57:00,
2013-09-26 08:02:00,48.8,45.7,30.05,NNW,338,0.4,0.9,89,0.00,,,0.00,WUHU216HW,2013-09-26 12:02:00,
2013-09-26 08:07:00,48.6,45.5,30.05,NNW,338,0.9,0.9,89,0.00,,,0.00,WUHU216HW,2013-09-26 12:07:00,
2013-09-26 08:12:00,48.6,45.5,30.06,NNW,338,0.4,0.9,89,0.00,,,0.00,WUHU216HW,2013-09-26 12:12:00,
2013-09-26 08:17:00,48.6,45.9,30.06,NNW,338,0.0,0.9,90,0.00,,,0.00,WUHU216HW,2013-09-26 12:17:00,
2013-09-26 08:22:00,48.4,45.4,30.06,NNW,338,0.0,0.7,89,0.00,,,0.00,WUHU216HW,2013-09-26 12:22:00,
2013-09-26 08:27:00,48.4,45.4,30.06,NNW,338,0.0,0.0,89,0.00,,,0.00,WUHU216HW,2013-09-26 12:27:00,
2013-09-26 08:32:00,48.2,45.5,30.06,NNW,338,0.7,0.7,90,0.00,,,0.00,WUHU216HW,2013-09-26 12:32:00,
2013-09-26 08:37:00,48.2,45.5,30.06,NNW,338,0.4,0.7,90,0.00,,,0.00,WUHU216HW,2013-09-26 12:37:00,
2013-09-26 08:42:00,48.2,45.5,30.06,NNW,338,0.9,0.9,90,0.00,,,0.00,WUHU216HW,2013-09-26 12:42:00,
2013-09-26 08:47:00,48.1,45.4,30.06,NNW,338,0.0,0.9,90,0.00,,,0.00,WUHU216HW,2013-09-26 12:47:00,
2013-09-26 08:52:00,48.1,45.4,30.06,NNW,338,1.1,1.1,90,0.00,,,0.00,WUHU216HW,2013-09-26 12:52:00,
2013-09-26 08:57:00,48.1,45.4,30.06,NNW,338,0.0,1.1,90,0.00,,,0.00,WUHU216HW,2013-09-26 12:57:00,
2013-09-26 09:02:00,48.1,45.4,30.06,NNW,338,0.4,1.1,90,0.00,,,0.00,WUHU216HW,2013-09-26 13:02:00,
2013-09-26 09:07:00,48.1,45.4,30.06,NNW,338,0.0,0.7,90,0.00,,,0.00,WUHU216HW,2013-09-26 13:07:00,
2013-09-26 09:12:00,47.9,45.2,30.06,NNW,338,0.0,0.4,90,0.00,,,0.00,WUHU216HW,2013-09-26 13:12:00,
2013-09-26 09:17:00,47.9,45.2,30.06,NNW,338,0.0,0.0,90,0.00,,,0.00,WUHU216HW,2013-09-26 13:17:00,
2013-09-26 09:22:00,47.9,45.2,30.07,NNW,338,0.2,0.2,90,0.00,,,0.00,WUHU216HW,2013-09-26 13:22:00,
2013-09-26 09:27:00,48.1,45.4,30.07,NNW,338,0.4,0.4,90,0.00,,,0.00,WUHU216HW,2013-09-26 13:27:00,
2013-09-26 09:32:00,47.9,45.2,30.07,NNW,338,0.0,0.4,90,0.00,,,0.00,WUHU216HW,2013-09-26 13:32:00,
2013-09-26 09:37:00,47.9,45.2,30.07,NNW,338,0.0,0.0,90,0.00,,,0.00,WUHU216HW,2013-09-26 13:37:00,
2013-09-26 09:42:00,47.9,45.2,30.07,NNW,338,0.0,0.0,90,0.00,,,0.00,WUHU216HW,2013-09-26 13:42:00,
2013-09-26 09:47:00,47.9,45.2,30.07,NNW,338,0.0,0.0,90,0.00,,,0.00,WUHU216HW,2013-09-26 13:47:00,
2013-09-26 09:52:00,48.1,45.4,30.07,NNW,338,0.4,0.4,90,0.00,,,0.00,WUHU216HW,2013-09-26 13:52:00,
2013-09-26 09:57:00,47.9,45.2,30.07,NNW,338,0.0,0.4,90,0.00,,,0.00,WUHU216HW,2013-09-26 13:57:00,
2013-09-26 10:02:00,47.9,45.2,30.08,NNW,338,0.0,0.4,90,0.00,,,0.00,WUHU216HW,2013-09-26 14:02:00,
2013-09-26 10:07:00,47.9,45.2,30.08,NNW,338,0.0,0.0,90,0.00,,,0.00,WUHU216HW,2013-09-26 14:07:00,
2013-09-26 10:12:00,47.9,45.2,30.08,NNW,338,0.0,0.0,90,0.00,,,0.00,WUHU216HW,2013-09-26 14:12:00,
2013-09-26 10:17:00,48.1,45.4,30.08,NNW,338,0.2,0.7,90,0.00,,,0.00,WUHU216HW,2013-09-26 14:17:00,
2013-09-26 10:22:00,48.2,45.8,30.08,NNW,338,0.7,0.7,91,0.00,,,0.00,WUHU216HW,2013-09-26 14:22:00,
2013-09-26 10:27:00,48.6,46.2,30.08,NNW,338,0.7,0.7,91,0.00,,,0.00,WUHU216HW,2013-09-26 14:27:00,
2013-09-26 10:32:00,48.6,46.2,30.08,NNW,338,0.4,0.7,91,0.00,,,0.00,WUHU216HW,2013-09-26 14:32:00,
2013-09-26 10:37:00,48.8,46.3,30.08,NNW,338,0.0,0.4,91,0.00,,,0.00,WUHU216HW,2013-09-26 14:37:00,
2013-09-26 10:42:00,49.0,46.4,30.08,NNW,338,0.7,0.7,91,0.00,,,0.00,WUHU216HW,2013-09-26 14:42:00,
2013-09-26 10:47:00,49.3,46.8,30.09,North,0,0.0,0.7,91,0.00,,,0.00,WUHU216HW,2013-09-26 14:47:00,
2013-09-26 10:52:00,49.3,46.8,30.09,North,0,0.0,0.4,91,0.00,,,0.00,WUHU216HW,2013-09-26 14:52:00,
2013-09-26 10:57:00,49.5,47.0,30.09,NNE,23,0.4,0.4,91,0.00,,,0.00,WUHU216HW,2013-09-26 14:57:00,
2013-09-26 11:02:00,49.5,47.0,30.09,West,270,0.2,0.4,91,0.00,,,0.00,WUHU216HW,2013-09-26 15:02:00,
2013-09-26 11:07:00,49.7,47.2,30.09,West,270,0.0,0.4,91,0.00,,,0.00,WUHU216HW,2013-09-26 15:07:00,
2013-09-26 11:12:00,49.9,47.3,30.09,SSE,158,0.0,0.0,91,0.00,,,0.00,WUHU216HW,2013-09-26 15:12:00,
2013-09-26 11:17:00,50.0,47.4,30.09,East,90,0.2,0.4,91,0.00,,,0.00,WUHU216HW,2013-09-26 15:17:00,
2013-09-26 11:22:00,50.0,47.4,30.09,East,90,0.4,0.4,91,0.00,,,0.00,WUHU216HW,2013-09-26 15:22:00,
2013-09-26 11:27:00,50.0,47.4,30.09,SE,135,0.4,0.4,91,0.00,,,0.00,WUHU216HW,2013-09-26 15:27:00,
2013-09-26 11:32:00,50.2,47.6,30.09,South,180,1.8,1.8,91,0.00,,,0.00,WUHU216HW,2013-09-26 15:32:00,
2013-09-26 11:38:00,50.4,47.8,30.09,SSE,158,0.7,1.8,91,0.00,,,0.00,WUHU216HW,2013-09-26 15:38:00,
2013-09-26 11:43:00,50.6,48.0,30.09,South,180,0.0,1.8,91,0.00,,,0.00,WUHU216HW,2013-09-26 15:43:00,
2013-09-26 11:48:00,50.8,48.2,30.10,SSW,203,0.0,0.0,91,0.00,,,0.00,WUHU216HW,2013-09-26 15:48:00,
2013-09-26 11:53:00,51.1,48.5,30.10,SW,225,1.3,1.3,91,0.00,,,0.00,WUHU216HW,2013-09-26 15:53:00,
2013-09-26 11:58:00,51.1,48.5,30.10,SSW,203,0.2,1.3,91,0.00,,,0.00,WUHU216HW,2013-09-26 15:58:00,
2013-09-26 12:03:00,51.3,48.7,30.10,SE,135,0.0,1.3,91,0.00,,,0.00,WUHU216HW,2013-09-26 16:03:00,
2013-09-26 12:08:00,51.5,48.9,30.10,SSW,203,1.8,1.8,91,0.00,,,0.00,WUHU216HW,2013-09-26 16:08:00,
2013-09-26 12:13:00,51.7,48.8,30.10,WNW,293,0.4,1.8,90,0.00,,,0.00,WUHU216HW,2013-09-26 16:13:00,
2013-09-26 12:18:00,51.7,48.8,30.11,South,180,1.1,1.6,90,0.00,,,0.00,WUHU216HW,2013-09-26 16:18:00,
2013-09-26 12:23:00,51.8,49.2,30.11,South,180,0.0,1.6,91,0.00,,,0.00,WUHU216HW,2013-09-26 16:23:00,
2013-09-26 12:28:00,52.2,49.6,30.11,ESE,113,0.2,1.1,91,0.00,,,0.00,WUHU216HW,2013-09-26 16:28:00,
2013-09-26 12:33:00,52.4,49.5,30.11,SSE,158,0.0,0.4,90,0.00,,,0.00,WUHU216HW,2013-09-26 16:33:00,
2013-09-26 12:38:00,52.4,49.5,30.11,SSE,158,2.5,2.5,90,0.00,,,0.00,WUHU216HW,2013-09-26 16:38:00,
2013-09-26 12:43:00,52.6,49.7,30.11,SSE,158,1.1,2.5,90,0.00,,,0.00,WUHU216HW,2013-09-26 16:43:00,
2013-09-26 12:48:00,52.6,49.4,30.11,South,180,0.0,1.8,89,0.00,,,0.00,WUHU216HW,2013-09-26 16:48:00,
2013-09-26 12:53:00,52.6,49.4,30.11,South,180,1.6,2.5,89,0.00,,,0.00,WUHU216HW,2013-09-26 16:53:00,
2013-09-26 12:58:00,52.7,49.6,30.11,South,180,0.4,2.5,89,0.00,,,0.00,WUHU216HW,2013-09-26 16:58:00,
2013-09-26 13:03:00,52.7,49.6,30.11,SSE,158,0.7,1.8,89,0.00,,,0.00,WUHU216HW,2013-09-26 17:03:00,
2013-09-26 13:08:00,52.7,49.6,30.11,SW,225,1.1,1.8,89,0.00,,,0.00,WUHU216HW,2013-09-26 17:08:00,
2013-09-26 13:13:00,52.9,49.8,30.12,West,270,0.7,1.1,89,0.00,,,0.00,WUHU216HW,2013-09-26 17:13:00,
2013-09-26 13:18:00,52.9,49.8,30.11,SSW,203,0.2,1.1,89,0.00,,,0.00,WUHU216HW,2013-09-26 17:18:00,
2013-09-26 13:23:00,52.9,49.8,30.11,NNE,23,0.7,0.7,89,0.00,,,0.00,WUHU216HW,2013-09-26 17:23:00,
2013-09-26 13:28:00,53.1,50.0,30.11,WNW,293,0.4,0.7,89,0.00,,,0.00,WUHU216HW,2013-09-26 17:28:00,
2013-09-26 13:33:00,53.3,50.1,30.11,North,0,0.9,0.9,89,0.00,,,0.00,WUHU216HW,2013-09-26 17:33:00,
2013-09-26 13:38:00,53.5,50.3,30.11,WNW,293,0.0,0.9,89,0.00,,,0.00,WUHU216HW,2013-09-26 17:38:00,
2013-09-26 13:43:00,54.0,50.9,30.12,NNW,338,1.3,1.8,89,0.00,,,0.00,WUHU216HW,2013-09-26 17:43:00,
2013-09-26 13:48:00,54.2,50.7,30.12,SW,225,0.7,1.8,88,0.00,,,0.00,WUHU216HW,2013-09-26 17:48:00,
2013-09-26 13:52:00,54.5,51.0,30.12,NNW,338,0.4,1.1,88,0.00,,,0.00,WUHU216HW,2013-09-26 17:52:00,
2013-09-26 13:57:00,54.7,51.2,30.12,North,0,0.7,1.1,88,0.00,,,0.00,WUHU216HW,2013-09-26 17:57:00,
2013-09-26 14:02:00,54.9,51.0,30.11,NNE,23,1.1,1.1,87,0.00,,,0.00,WUHU216HW,2013-09-26 18:02:00,
2013-09-26 14:08:00,55.3,51.4,30.11,South,180,0.7,1.1,87,0.00,,,0.00,WUHU216HW,2013-09-26 18:08:00,
2013-09-26 14:13:00,55.8,51.7,30.12,North,0,1.3,1.3,86,0.00,,,0.00,WUHU216HW,2013-09-26 18:13:00,
2013-09-26 14:17:00,56.2,52.0,30.12,NE,45,0.9,1.3,86,0.00,,,0.00,WUHU216HW,2013-09-26 18:17:00,
2013-09-26 14:23:00,56.0,51.5,30.12,North,0,0.4,1.1,85,0.00,,,0.00,WUHU216HW,2013-09-26 18:23:00,
2013-09-26 14:27:00,55.8,50.9,30.12,SSE,158,1.1,1.1,84,0.00,,,0.00,WUHU216HW,2013-09-26 18:27:00,
2013-09-26 14:33:00,56.3,51.8,30.12,SE,135,2.5,2.5,85,0.00,,,0.00,WUHU216HW,2013-09-26 18:33:00,
2013-09-26 14:37:00,56.5,51.7,30.12,West,270,1.1,2.5,84,0.00,,,0.00,WUHU216HW,2013-09-26 18:37:00,
2013-09-26 14:42:00,56.9,52.0,30.12,SSE,158,1.1,2.5,84,0.00,,,0.00,WUHU216HW,2013-09-26 18:42:00,
2013-09-26 14:47:00,56.9,52.0,30.12,NNW,338,0.9,1.1,84,0.00,,,0.00,WUHU216HW,2013-09-26 18:47:00,
2013-09-26 14:52:00,56.9,52.0,30.12,NW,315,0.7,0.9,84,0.00,,,0.00,WUHU216HW,2013-09-26 18:52:00,
2013-09-26 14:57:00,56.7,51.6,30.12,NNW,338,0.4,0.9,83,0.00,,,0.00,WUHU216HW,2013-09-26 18:57:00,
2013-09-26 15:02:00,56.9,52.0,30.12,North,0,1.6,1.6,84,0.00,,,0.00,WUHU216HW,2013-09-26 19:02:00,
2013-09-26 15:07:00,57.4,52.3,30.12,NE,45,1.1,1.6,83,0.00,,,0.00,WUHU216HW,2013-09-26 19:07:00,
2013-09-26 15:12:00,57.4,52.3,30.12,WNW,293,0.9,1.1,83,0.00,,,0.00,WUHU216HW,2013-09-26 19:12:00,
2013-09-26 15:17:00,57.6,52.5,30.12,SSE,158,0.4,1.1,83,0.00,,,0.00,WUHU216HW,2013-09-26 19:17:00,
2013-09-26 15:22:00,57.8,52.7,30.12,WSW,248,0.0,1.1,83,0.00,,,0.00,WUHU216HW,2013-09-26 19:22:00,
2013-09-26 15:27:00,57.8,52.7,30.12,SSE,158,1.8,1.8,83,0.00,,,0.00,WUHU216HW,2013-09-26 19:27:00,
2013-09-26 15:32:00,57.8,52.7,30.12,South,180,1.1,1.8,83,0.00,,,0.00,WUHU216HW,2013-09-26 19:32:00,
2013-09-26 15:37:00,58.1,53.0,30.12,ENE,68,0.7,1.8,83,0.00,,,0.00,WUHU216HW,2013-09-26 19:37:00,
2013-09-26 15:42:00,58.3,52.8,30.12,ENE,68,1.1,1.1,82,0.00,,,0.00,WUHU216HW,2013-09-26 19:42:00,
2013-09-26 15:47:00,58.3,52.8,30.12,NNE,23,1.1,1.1,82,0.00,,,0.00,WUHU216HW,2013-09-26 19:47:00,
2013-09-26 15:52:00,58.3,52.6,30.12,North,0,1.6,1.8,81,0.00,,,0.00,WUHU216HW,2013-09-26 19:52:00,
2013-09-26 15:57:00,58.1,52.4,30.12,NNE,23,1.6,1.8,81,0.00,,,0.00,WUHU216HW,2013-09-26 19:57:00,
2013-09-26 16:02:00,58.0,52.2,30.12,NW,315,0.0,1.6,81,0.00,,,0.00,WUHU216HW,2013-09-26 20:02:00,
2013-09-26 16:07:00,58.0,51.8,30.12,NNE,23,1.1,1.6,80,0.00,,,0.00,WUHU216HW,2013-09-26 20:07:00,
2013-09-26 16:13:00,58.0,52.2,30.12,NNE,23,1.3,3.6,81,0.00,,,0.00,WUHU216HW,2013-09-26 20:13:00,
2013-09-26 16:18:00,58.0,51.8,30.12,NNE,23,1.1,3.6,80,0.00,,,0.00,WUHU216HW,2013-09-26 20:18:00,
2013-09-26 16:22:00,58.1,52.0,30.12,NE,45,0.2,2.0,80,0.00,,,0.00,WUHU216HW,2013-09-26 20:22:00,
2013-09-26 16:27:00,58.3,51.8,30.11,NE,45,1.1,1.8,79,0.00,,,0.00,WUHU216HW,2013-09-26 20:27:00,
2013-09-26 16:32:00,58.5,52.0,30.12,NW,315,1.3,1.8,79,0.00,,,0.00,WUHU216HW,2013-09-26 20:32:00,
2013-09-26 16:37:00,58.7,52.2,30.12,NE,45,2.2,2.5,79,0.00,,,0.00,WUHU216HW,2013-09-26 20:37:00,
2013-09-26 16:42:00,58.9,51.3,30.11,North,0,4.5,4.5,76,0.00,,,0.00,WUHU216HW,2013-09-26 20:42:00,
2013-09-26 16:47:00,58.7,51.5,30.11,NNE,23,1.1,4.5,77,0.00,,,0.00,WUHU216HW,2013-09-26 20:47:00,
2013-09-26 16:53:00,58.7,51.5,30.11,SSE,158,1.8,1.8,77,0.00,,,0.00,WUHU216HW,2013-09-26 20:53:00,
2013-09-26 16:57:00,58.9,51.7,30.11,NNE,23,1.1,1.8,77,0.00,,,0.00,WUHU216HW,2013-09-26 20:57:00,
2013-09-26 17:02:00,58.7,51.1,30.11,South,180,0.7,1.8,76,0.00,,,0.00,WUHU216HW,2013-09-26 21:02:00,
2013-09-26 17:07:00,58.9,51.3,30.11,SSE,158,1.6,1.8,76,0.00,,,0.00,WUHU216HW,2013-09-26 21:07:00,
2013-09-26 17:12:00,58.9,51.3,30.11,SSE,158,1.8,1.8,76,0.00,,,0.00,WUHU216HW,2013-09-26 21:12:00,
2013-09-26 17:17:00,59.2,52.0,30.11,SSE,158,2.9,2.9,77,0.00,,,0.00,WUHU216HW,2013-09-26 21:17:00,
2013-09-26 17:22:00,59.4,52.2,30.11,East,90,1.1,2.9,77,0.00,,,0.00,WUHU216HW,2013-09-26 21:22:00,
2013-09-26 17:27:00,59.4,52.2,30.11,SW,225,0.2,2.9,77,0.00,,,0.00,WUHU216HW,2013-09-26 21:27:00,
2013-09-26 17:33:00,59.6,52.0,30.11,South,180,1.1,1.1,76,0.00,,,0.00,WUHU216HW,2013-09-26 21:33:00,
2013-09-26 17:38:00,59.8,52.2,30.11,West,270,0.4,1.1,76,0.00,,,0.00,WUHU216HW,2013-09-26 21:38:00,
2013-09-26 17:43:00,59.9,52.4,30.11,North,0,2.5,2.5,76,0.00,,,0.00,WUHU216HW,2013-09-26 21:43:00,
2013-09-26 17:48:00,60.1,52.2,30.11,WSW,248,0.4,2.5,75,0.00,,,0.00,WUHU216HW,2013-09-26 21:48:00,
2013-09-26 17:53:00,60.3,52.0,30.11,SW,225,0.4,2.5,74,0.00,,,0.00,WUHU216HW,2013-09-26 21:53:00,
2013-09-26 17:58:00,60.3,51.7,30.11,NNE,23,3.6,3.6,73,0.00,,,0.00,WUHU216HW,2013-09-26 21:58:00,
2013-09-26 18:03:00,60.3,51.7,30.11,SSW,203,1.1,3.6,73,0.00,,,0.00,WUHU216HW,2013-09-26 22:03:00,
2013-09-26 18:08:00,60.1,51.5,30.11,South,180,1.8,3.6,73,0.00,,,0.00,WUHU216HW,2013-09-26 22:08:00,
2013-09-26 18:13:00,60.1,51.5,30.11,South,180,0.4,2.2,73,0.00,,,0.00,WUHU216HW,2013-09-26 22:13:00,
2013-09-26 18:18:00,60.1,51.5,30.11,NNE,23,1.1,1.8,73,0.00,,,0.00,WUHU216HW,2013-09-26 22:18:00,
2013-09-26 18:23:00,60.1,51.5,30.11,SW,225,2.5,2.5,73,0.00,,,0.00,WUHU216HW,2013-09-26 22:23:00,
2013-09-26 18:28:00,60.1,51.5,30.11,SE,135,1.1,2.5,73,0.00,,,0.00,WUHU216HW,2013-09-26 22:28:00,
2013-09-26 18:33:00,60.1,51.5,30.11,SSE,158,1.6,1.8,73,0.00,,,0.00,WUHU216HW,2013-09-26 22:33:00,
2013-09-26 18:38:00,60.3,51.7,30.11,SSE,158,3.4,3.4,73,0.00,,,0.00,WUHU216HW,2013-09-26 22:38:00,
2013-09-26 18:43:00,60.3,51.7,30.11,WSW,248,2.7,3.4,73,0.00,,,0.00,WUHU216HW,2013-09-26 22:43:00,
2013-09-26 18:48:00,60.3,51.7,30.11,NE,45,1.3,3.4,73,0.00,,,0.00,WUHU216HW,2013-09-26 22:48:00,
2013-09-26 18:53:00,60.1,51.5,30.11,NNW,338,0.4,1.8,73,0.00,,,0.00,WUHU216HW,2013-09-26 22:53:00,
2013-09-26 18:58:00,60.1,51.5,30.11,SE,135,2.2,2.2,73,0.00,,,0.00,WUHU216HW,2013-09-26 22:58:00,
2013-09-26 19:03:00,60.1,51.5,30.11,NW,315,0.4,2.2,73,0.00,,,0.00,WUHU216HW,2013-09-26 23:03:00,
2013-09-26 19:08:00,59.9,51.3,30.11,WNW,293,0.9,0.9,73,0.00,,,0.00,WUHU216HW,2013-09-26 23:08:00,
2013-09-26 19:13:00,59.8,51.1,30.11,North,0,0.4,0.9,73,0.00,,,0.00,WUHU216HW,2013-09-26 23:13:00,
2013-09-26 19:18:00,59.8,51.1,30.10,NE,45,1.1,1.1,73,0.00,,,0.00,WUHU216HW,2013-09-26 23:18:00,
2013-09-26 19:23:00,59.6,50.9,30.10,West,270,0.7,1.1,73,0.00,,,0.00,WUHU216HW,2013-09-26 23:23:00,
2013-09-26 19:28:00,59.6,50.9,30.10,SW,225,0.7,1.1,73,0.00,,,0.00,WUHU216HW,2013-09-26 23:28:00,
2013-09-26 19:33:00,59.4,50.8,30.10,SSE,158,0.2,1.3,73,0.00,,,0.00,WUHU216HW,2013-09-26 23:33:00,
2013-09-26 19:38:00,59.4,50.8,30.11,SE,135,0.7,1.6,73,0.00,,,0.00,WUHU216HW,2013-09-26 23:38:00,
2013-09-26 19:43:00,59.4,51.1,30.11,North,0,0.7,1.6,74,0.00,,,0.00,WUHU216HW,2013-09-26 23:43:00,
2013-09-26 19:48:00,59.4,51.1,30.11,SE,135,1.1,1.1,74,0.00,,,0.00,WUHU216HW,2013-09-26 23:48:00,
2013-09-26 19:53:00,59.4,51.1,30.11,NW,315,1.8,1.8,74,0.00,,,0.00,WUHU216HW,2013-09-26 23:53:00,
2013-09-26 19:58:00,59.4,50.8,30.11,SSE,158,1.8,1.8,73,0.00,,,0.00,WUHU216HW,2013-09-26 23:58:00,
2013-09-26 20:03:00,59.4,51.1,30.11,SW,225,0.4,2.0,74,0.00,,,0.00,WUHU216HW,2013-09-27 00:03:00,
2013-09-26 20:10:00,59.4,50.8,30.10,NNE,23,2.0,2.0,73,0.00,,,0.00,WUHU216HW,2013-09-27 00:10:00,
2013-09-26 20:15:00,59.2,50.6,30.10,SSW,203,0.0,2.0,73,0.00,,,0.00,WUHU216HW,2013-09-27 00:15:00,
2013-09-26 20:20:00,59.0,50.8,30.10,South,180,1.1,1.1,74,0.00,,,0.00,WUHU216HW,2013-09-27 00:20:00,
2013-09-26 20:25:00,59.0,50.8,30.10,SSW,203,0.0,1.1,74,0.00,,,0.00,WUHU216HW,2013-09-27 00:25:00,
2013-09-26 20:30:00,59.0,50.8,30.11,SSW,203,0.2,1.1,74,0.00,,,0.00,WUHU216HW,2013-09-27 00:30:00,
2013-09-26 20:35:00,58.9,50.6,30.10,SSE,158,0.0,0.9,74,0.00,,,0.00,WUHU216HW,2013-09-27 00:35:00,
2013-09-26 20:40:00,58.9,50.6,30.10,South,180,0.4,0.9,74,0.00,,,0.00,WUHU216HW,2013-09-27 00:40:00,
2013-09-26 20:45:00,58.7,50.4,30.10,South,180,0.4,0.4,74,0.00,,,0.00,WUHU216HW,2013-09-27 00:45:00,
2013-09-26 20:50:00,58.7,50.4,30.10,SSE,158,1.1,1.1,74,0.00,,,0.00,WUHU216HW,2013-09-27 00:50:00,
2013-09-26 20:55:00,58.7,50.8,30.10,North,0,0.0,1.1,75,0.00,,,0.00,WUHU216HW,2013-09-27 00:55:00,
2013-09-26 21:00:00,58.7,50.8,30.11,WSW,248,1.8,1.8,75,0.00,,,0.00,WUHU216HW,2013-09-27 01:00:00,
2013-09-26 21:05:00,58.5,50.6,30.11,West,270,0.4,1.8,75,0.00,,,0.00,WUHU216HW,2013-09-27 01:05:00,
2013-09-26 21:10:00,58.5,50.6,30.11,West,270,0.4,1.8,75,0.00,,,0.00,WUHU216HW,2013-09-27 01:10:00,
2013-09-26 21:15:00,58.3,50.4,30.11,WSW,248,1.3,1.3,75,0.00,,,0.00,WUHU216HW,2013-09-27 01:15:00,
2013-09-26 21:20:00,58.1,50.2,30.11,WSW,248,0.0,1.3,75,0.00,,,0.00,WUHU216HW,2013-09-27 01:20:00,
2013-09-26 21:25:00,58.0,50.4,30.11,WSW,248,0.2,1.3,76,0.00,,,0.00,WUHU216HW,2013-09-27 01:25:00,
2013-09-26 21:30:00,58.0,50.4,30.11,WSW,248,0.0,0.2,76,0.00,,,0.00,WUHU216HW,2013-09-27 01:30:00,
2013-09-26 21:35:00,57.8,50.2,30.11,WSW,248,0.0,0.2,76,0.00,,,0.00,WUHU216HW,2013-09-27 01:35:00,
2013-09-26 21:40:00,57.6,50.4,30.11,WSW,248,0.0,0.0,77,0.00,,,0.00,WUHU216HW,2013-09-27 01:40:00,
2013-09-26 21:45:00,57.6,50.4,30.11,WSW,248,0.0,0.0,77,0.00,,,0.00,WUHU216HW,2013-09-27 01:45:00,
2013-09-26 21:50:00,57.4,50.6,30.11,WSW,248,0.0,0.0,78,0.00,,,0.00,WUHU216HW,2013-09-27 01:50:00,
2013-09-26 21:55:00,57.4,50.6,30.11,WSW,248,0.0,0.0,78,0.00,,,0.00,WUHU216HW,2013-09-27 01:55:00,
2013-09-26 22:00:00,57.2,50.4,30.11,WSW,248,0.0,0.0,78,0.00,,,0.00,WUHU216HW,2013-09-27 02:00:00,
2013-09-26 22:05:00,57.2,50.4,30.11,WSW,248,0.0,0.0,78,0.00,,,0.00,WUHU216HW,2013-09-27 02:05:00,
2013-09-26 22:10:00,57.2,50.4,30.11,WSW,248,0.4,0.4,78,0.00,,,0.00,WUHU216HW,2013-09-27 02:10:00,
2013-09-26 22:15:00,57.1,50.2,30.11,WSW,248,0.7,0.7,78,0.00,,,0.00,WUHU216HW,2013-09-27 02:15:00,
2013-09-26 22:20:00,56.5,50.0,30.11,WSW,248,0.7,0.9,79,0.00,,,0.00,WUHU216HW,2013-09-27 02:20:00,
2013-09-26 22:25:00,56.3,49.9,30.11,WSW,248,0.9,0.9,79,0.00,,,0.00,WUHU216HW,2013-09-27 02:25:00,
2013-09-26 22:30:00,56.2,49.7,30.11,WSW,248,0.2,0.9,79,0.00,,,0.00,WUHU216HW,2013-09-27 02:30:00,
2013-09-26 22:35:00,56.0,49.5,30.11,NNW,338,0.7,0.9,79,0.00,,,0.00,WUHU216HW,2013-09-27 02:35:00,
2013-09-26 22:40:00,55.8,49.7,30.12,NNW,338,0.2,0.7,80,0.00,,,0.00,WUHU216HW,2013-09-27 02:40:00,
2013-09-26 22:45:00,55.8,49.7,30.12,NW,315,0.7,0.7,80,0.00,,,0.00,WUHU216HW,2013-09-27 02:45:00,
2013-09-26 22:50:00,55.8,50.1,30.12,NW,315,0.7,0.9,81,0.00,,,0.00,WUHU216HW,2013-09-27 02:50:00,
2013-09-26 22:55:00,55.6,49.9,30.12,NW,315,0.7,0.9,81,0.00,,,0.00,WUHU216HW,2013-09-27 02:55:00,
2013-09-26 23:00:00,55.6,49.9,30.12,NW,315,0.4,0.7,81,0.00,,,0.00,WUHU216HW,2013-09-27 03:00:00,
2013-09-26 23:05:00,55.6,49.9,30.12,NW,315,0.0,0.4,81,0.00,,,0.00,WUHU216HW,2013-09-27 03:05:00,
2013-09-26 23:10:00,55.6,49.9,30.12,NW,315,0.0,0.4,81,0.00,,,0.00,WUHU216HW,2013-09-27 03:10:00,
2013-09-26 23:15:00,55.6,49.9,30.13,NW,315,0.2,0.7,81,0.00,,,0.00,WUHU216HW,2013-09-27 03:15:00,
2013-09-26 23:20:00,55.6,49.9,30.13,NW,315,0.0,0.7,81,0.00,,,0.00,WUHU216HW,2013-09-27 03:20:00,
2013-09-26 23:25:00,55.6,49.9,30.13,NW,315,0.0,0.2,81,0.00,,,0.00,WUHU216HW,2013-09-27 03:25:00,
2013-09-26 23:30:00,55.4,49.7,30.13,NW,315,0.0,0.2,81,0.00,,,0.00,WUHU216HW,2013-09-27 03:30:00,
2013-09-26 23:35:00,55.4,49.7,30.13,NW,315,0.0,0.2,81,0.00,,,0.00,WUHU216HW,2013-09-27 03:35:00,
2013-09-26 23:40:00,55.3,49.5,30.12,NW,315,0.0,0.0,81,0.00,,,0.00,WUHU216HW,2013-09-27 03:40:00,
2013-09-26 23:45:00,55.3,49.5,30.12,NW,315,0.0,0.0,81,0.00,,,0.00,WUHU216HW,2013-09-27 03:45:00,
2013-09-26 23:50:00,55.1,49.7,30.12,NW,315,0.9,0.9,82,0.00,,,0.00,WUHU216HW,2013-09-27 03:50:00,
2013-09-26 23:55:00,54.9,49.5,30.12,NW,315,0.2,0.9,82,0.00,,,0.00,WUHU216HW,2013-09-27 03:55:00,